SCP
0 0 0 0 0 0 0 0 0 0 0 0 0 0 0 0 0 0 0 0 0 0 0 0 0 0 0
0 0 0 0 0 0 0 0 0 0 0 0 0 0 0 0 0 0 0 0 0 0 0 0 0 0 0
0 0 0 0 0 0 0 0 0 0 0 0 0 0 0 0 0 0 0 0 0 0 0 0 0 0 0
0 0 0 0 0 0 0 0 0 0 0 0 0 0 0 0 0 0 0 0 0 0 0 0 0 0 0
0 0 0 0 0 0 0 0 0 0 0 0 0 0 0 0 0 0 0 0 0 0 0 0 0 0 0
0 0 0 0 0 0 -0 0 0 0 0 0 0 0 0 0 0 0 0 0 0 0 0 0 0 0 0
0 0 0 0 0 0 0 -0 -0 0 0 0 0 0 0 0 0 0 0 0 0 0 0 0 0 0 0
0 0 0 0 0 0 0 0 -0 -0 0 0 0 0 0 0 0 0 0 0 0 0 0 0 0 0 0
0 0 0 0 0 0 0 0 0 -0 -0 -0 0 0 0 0 0 0 0 0 0 0 0 0 0 0 0
0 0 0 0 0 0 0 0 0 0 0 -0 -0 0 0 0 0 0 0 0 0 0 0 0 0 0 0
0 0 0 0 0 0 0 0 0 0 0 0 -0 -0 0 0 0 0 0 0 0 0 0 0 0 0 0
0 0 0 0 0 0 0 0 0 0 0 0 0 -0 -0 0 0 0 0 0 0 0 0 0 0 0 0
0 0 -0 -0 0 0 0 -0 0 0 0 0 0 0 0 0 -0 0 0 0 0 0 0 0 0 0 0
0 0 0 0 0 0 0 0 0 0 0 0 0 0 0 0 0 0 0 0 0 0 0 0 0 0 0
0 0 0 0 0 0 0 0 0 0 0 0 0 0 0 0 0 0 0 0 0 0 0 0 0 0 0
0 0 0 0 0 0 0 0 0 0 0 0 0 0 0 0 0 0 0 0 0 0 0 0 0 0 0
Wind_Speed_500mb
33 35 41 45 48 47 45 44 46 44 45 48 50 55 53 49 43 36 35 37 34 43 45 50 54 60 63
41 39 42 48 51 51 51 50 50 50 48 48 50 53 54 54 51 47 44 42 38 53 52 55 57 57 57
29 38 47 48 52 57 58 58 57 57 57 55 55 57 57 57 55 51 50 44 43 58 57 53 58 56 55
38 37 39 38 30 46 62 64 67 63 62 61 60 60 60 59 56 54 50 50 49 67 61 57 60 62 64
36 41 45 44 39 46 29 53 65 68 68 66 67 65 62 59 55 54 51 56 59 76 71 69 65 68 68
27 29 33 41 46 47 47 47 32 48 69 69 72 71 71 67 60 60 56 65 66 74 81 75 66 81 76
29 34 37 38 40 38 43 47 54 49 26 65 75 76 76 73 66 67 66 69 71 75 79 83 75 71 77
36 36 39 44 48 49 49 53 51 52 55 32 42 83 83 83 78 73 79 76 77 78 78 80 83 78 73
47 50 51 51 54 58 57 55 56 64 59 70 65 37 92 89 85 88 87 85 79 86 81 83 80 82 82
55 62 67 70 70 72 73 72 69 68 73 65 78 77 42 96 94 97 100 93 87 93 88 89 86 81 87
73 79 84 88 91 91 90 90 88 87 85 85 75 81 71 60 97 107 107 99 97 95 95 91 88 86 85
90 95 101 103 103 102 103 102 101 98 92 85 88 82 72 82 73 95 112 100 100 101 104 100 95 90 88
94 97 101 103 105 107 107 106 103 98 94 89 92 97 85 78 94 74 91 112 106 101 107 103 102 95 96
94 93 90 91 94 94 93 92 89 87 90 98 99 98 94 85 90 102 65 80 107 112 98 85 72 91 103
77 79 80 79 82 86 85 85 81 77 76 79 85 92 96 91 91 98 115 72 94 116 109 75 43 42 88
67 70 75 81 87 83 82 84 85 81 76 73 75 77 82 87 88 95 106 118 56 119 122 129 89 72 43
Wind_Direction_500mb
250 251 254 264 260 248 242 234 231 226 213 216 218 209 207 214 219 229 237 233 230 200 190 195 192 187 180
262 257 250 251 259 259 244 235 232 229 227 221 221 222 219 222 231 234 237 244 229 187 194 196 191 193 193
287 268 259 254 255 259 250 238 235 233 226 225 223 225 229 233 234 238 238 238 223 198 203 200 196 195 199
286 284 285 286 274 268 245 245 233 234 232 230 228 230 233 234 237 238 236 228 219 205 204 203 204 199 200
294 291 288 291 294 300 297 268 244 234 234 231 232 233 231 229 231 233 232 227 221 207 209 209 204 203 201
327 322 316 307 299 292 292 278 294 243 241 235 234 234 232 227 225 225 232 228 222 211 213 215 212 205 204
329 330 329 325 325 320 314 311 293 290 267 245 239 240 236 231 230 226 231 233 224 216 215 215 216 218 226
311 306 305 306 307 309 312 316 316 302 285 262 263 245 242 237 236 234 230 231 229 224 221 219 217 218 224
294 295 293 292 293 295 295 296 301 305 308 280 274 279 245 241 244 237 232 229 231 228 226 220 220 221 223
289 290 291 290 289 288 288 289 288 289 291 287 282 273 273 242 237 244 231 227 228 229 226 221 219 221 225
290 288 287 286 284 284 282 282 283 283 283 277 278 276 268 273 234 232 233 226 225 227 227 224 220 222 227
294 292 290 289 286 283 280 278 277 277 275 266 269 270 273 260 264 228 231 224 229 227 227 228 224 226 228
299 298 295 292 289 287 285 284 280 274 269 264 260 263 262 259 258 259 229 226 219 229 227 226 225 222 228
302 300 299 296 293 290 288 287 285 281 273 266 261 260 263 255 254 249 249 222 213 217 215 221 215 215 222
307 304 300 295 291 292 292 291 289 284 279 272 265 259 260 261 252 252 246 251 205 214 222 210 209 215 209
310 306 303 301 299 298 295 292 290 287 281 272 265 261 256 256 254 246 247 241 245 217 214 221 218 222 197
Wind_Speed_850mb
33 35 41 45 48 47 45 44 46 44 45 48 50 55 53 49 43 36 35 37 34 43 45 50 54 60 63
41 39 42 48 51 51 51 50 50 50 48 48 50 53 54 54 51 47 44 42 38 53 52 55 57 57 57
29 38 47 48 52 57 58 58 57 57 57 55 55 57 57 57 55 51 50 44 43 58 57 53 58 56 55
38 37 39 38 30 46 62 64 67 63 62 61 60 60 60 59 56 54 50 50 49 67 61 57 60 62 64
36 41 45 44 39 46 29 53 65 68 68 66 67 65 62 59 55 54 51 56 59 76 71 69 65 68 68
27 29 33 41 46 47 47 47 32 48 69 69 72 71 71 67 60 60 56 65 66 74 81 75 66 81 76
29 34 37 38 40 38 43 47 54 49 26 65 75 76 76 73 66 67 66 69 71 75 79 83 75 71 77
36 36 39 44 48 49 49 53 51 52 55 32 42 83 83 83 78 73 79 76 77 78 78 80 83 78 73
47 50 51 51 54 58 57 55 56 64 59 70 65 37 92 89 85 88 87 85 79 86 81 83 80 82 82
55 62 67 70 70 72 73 72 69 68 73 65 78 77 42 96 94 97 100 93 87 93 88 89 86 81 87
73 79 84 88 91 91 90 90 88 87 85 85 75 81 71 60 97 107 107 99 97 95 95 91 88 86 85
90 95 101 103 103 102 103 102 101 98 92 85 88 82 72 82 73 95 112 100 100 101 104 100 95 90 88
94 97 101 103 105 107 107 106 103 98 94 89 92 97 85 78 94 74 91 112 106 101 107 103 102 95 96
94 93 90 91 94 94 93 92 89 87 90 98 99 98 94 85 90 102 65 80 107 112 98 85 72 91 103
77 79 80 79 82 86 85 85 81 77 76 79 85 92 96 91 91 98 115 72 94 116 109 75 43 42 88
67 70 75 81 87 83 82 84 85 81 76 73 75 77 82 87 88 95 106 118 56 119 122 129 89 72 43
Wind_Direction_850mb
250 251 254 264 260 248 242 234 231 226 213 216 218 209 207 214 219 229 237 233 230 200 190 195 192 187 180
262 257 250 251 259 259 244 235 232 229 227 221 221 222 219 222 231 234 237 244 229 187 194 196 191 193 193
287 268 259 254 255 259 250 238 235 233 226 225 223 225 229 233 234 238 238 238 223 198 203 200 196 195 199
286 284 285 286 274 268 245 245 233 234 232 230 228 230 233 234 237 238 236 228 219 205 204 203 204 199 200
294 291 288 291 294 300 297 268 244 234 234 231 232 233 231 229 231 233 232 227 221 207 209 209 204 203 201
327 322 316 307 299 292 292 278 294 243 241 235 234 234 232 227 225 225 232 228 222 211 213 215 212 205 204
329 330 329 325 325 320 314 311 293 290 267 245 239 240 236 231 230 226 231 233 224 216 215 215 216 218 226
311 306 305 306 307 309 312 316 316 302 285 262 263 245 242 237 236 234 230 231 229 224 221 219 217 218 224
294 295 293 292 293 295 295 296 301 305 308 280 274 279 245 241 244 237 232 229 231 228 226 220 220 221 223
289 290 291 290 289 288 288 289 288 289 291 287 282 273 273 242 237 244 231 227 228 229 226 221 219 221 225
290 288 287 286 284 284 282 282 283 283 283 277 278 276 268 273 234 232 233 226 225 227 227 224 220 222 227
294 292 290 289 286 283 280 278 277 277 275 266 269 270 273 260 264 228 231 224 229 227 227 228 224 226 228
299 298 295 292 289 287 285 284 280 274 269 264 260 263 262 259 258 259 229 226 219 229 227 226 225 222 228
302 300 299 296 293 290 288 287 285 281 273 266 261 260 263 255 254 249 249 222 213 217 215 221 215 215 222
307 304 300 295 291 292 292 291 289 284 279 272 265 259 260 261 252 252 246 251 205 214 222 210 209 215 209
310 306 303 301 299 298 295 292 290 287 281 272 265 261 256 256 254 246 247 241 245 217 214 221 218 222 197